VE3KSR Weather Reports


Display with metric or nautical units.
time (UTC)temp
F
wind
direction
speed
MPH
gust
MPH
rain 1hr
in
rain 24hr
in
rain mn
in
humidity
%
barometer
mb
20260509220802 -16 0 0.0 0.0 5.64 0.00 0.00 88 1012.0
20260509220302 -16 0 0.0 0.0 5.64 0.00 0.00 89 1011.9
20260509215802 -16 0 0.0 0.0 5.64 0.00 0.00 89 1011.8
20260509215305 -7 0 0.0 0.0 5.64 0.00 0.00 91 1011.8
20260509214803 -6 290 1.0 7.0 5.64 0.00 0.00 91 1011.9
20260509214303 -5 0 0.0 0.0 5.64 0.00 0.00 91 1012.0
20260509213802 -6 0 0.0 0.0 5.64 0.00 0.00 90 1011.9
20260509213303 -5 0 0.0 0.0 5.64 0.00 0.00 91 1011.9
20260509212802 -5 0 0.0 0.0 5.64 0.00 0.00 90 1011.9
20260509212305 16 0 0.0 0.0 5.64 0.00 0.00 92 1011.9
20260509211802 16 0 0.0 0.0 5.64 0.00 0.00 97 1011.9
20260509211304 24 273 1.0 11.0 5.64 0.00 0.00 98 1012.0
20260509210804 -4 280 0.0 4.0 5.64 0.00 0.00 99 1011.8
20260509210302 -3 0 0.0 0.0 5.64 0.00 0.00 98 1011.9
20260509205802 19 0 0.0 0.0 5.64 0.00 0.00 98 1012.2
20260509205306 20 0 0.0 0.0 5.64 0.00 0.00 98 1012.3
20260509204802 32 252 11.0 20.0 5.64 0.00 0.00 98 1012.5
20260509204302 55 359 1.0 7.0 5.64 0.00 0.00 96 1012.6
20260509203802 57 0 0.0 0.0 5.64 0.00 0.00 96 1012.1
20260509203302 56 89 19.0 31.0 5.64 0.00 0.00 90 1012.1
20260509202802 54 359 18.0 27.0 5.64 0.00 0.00 82 1011.5
20260509202306 53 211 14.0 30.0 5.64 0.00 0.00 81 1011.5
20260509201803 48 359 18.0 29.0 5.64 0.00 0.00 80 1011.5
20260509201302 48 125 20.0 28.0 5.64 0.00 0.00 84 1011.4
20260509200802 56 359 9.0 29.0 5.64 0.00 0.00 83 1011.2
20260509200302 58 359 9.0 29.0 5.64 0.00 0.00 81 1011.5
20260509195802 59 332 15.0 26.0 5.64 0.00 0.00 83 1011.8
20260509195306 47 203 20.0 33.0 5.64 0.00 0.00 84 1011.8
20260509194802 47 218 19.0 25.0 5.64 0.00 0.00 86 1011.8
20260509194302 47 8 13.0 27.0 5.64 0.00 0.00 88 1011.8
20260509193802 47 225 17.0 28.0 5.64 0.00 0.00 88 1012.0
20260509193302 -21 359 11.0 26.0 5.64 0.00 0.00 90 1012.1
20260509192802 -22 188 12.0 25.0 5.64 0.00 0.00 91 1012.0
20260509192305 -21 0 0.0 0.0 5.64 0.00 0.00 90 1012.2
20260509191802 -15 179 14.0 23.0 5.64 0.00 0.00 89 1012.3
20260509191302 -17 221 17.0 25.0 5.64 0.00 0.00 92 1012.5
20260509190802 19 238 12.0 20.0 5.64 0.00 0.00 92 1012.6
20260509190303 -24 0 0.0 0.0 5.64 0.00 0.00 93 1012.4
20260509185802 27 208 11.0 23.0 5.64 0.00 0.00 92 1012.5
20260509185306 -27 0 0.0 0.0 5.64 0.00 0.00 91 1012.8
20260509184802 -15 257 17.0 28.0 5.64 0.00 0.00 87 1012.7
20260509184303 -21 249 6.0 21.0 5.64 0.00 0.00 77 1013.0
20260509183803 -27 201 11.0 25.0 5.64 0.00 0.00 78 1013.2
20260509183302 -23 207 1.0 11.0 5.64 0.00 0.00 75 1013.1
20260509182802 -21 0 0.0 0.0 5.64 0.00 0.00 77 1013.1
20260509182306 -20 0 0.0 0.0 5.64 0.00 0.00 75 1013.2
20260509181803 -6 0 0.0 0.0 5.64 0.00 0.00 77 1013.3
20260509181303 59 0 0.0 0.0 5.64 0.00 0.00 77 1013.3
20260509180802 -9 0 0.0 0.0 5.64 0.00 0.00 78 1013.2
20260509180302 -8 0 0.0 0.0 5.64 0.00 0.00 77 1013.4
20260509175803 -8 0 0.0 0.0 5.67 0.00 0.00 75 1013.4
20260509175306 3 0 0.0 0.0 5.64 0.00 0.00 73 1013.2
20260509174802 4 0 0.0 0.0 5.64 0.00 0.00 70 1013.2
20260509174302 10 205 6.0 17.0 5.64 0.00 0.00 73 1013.2
20260509173803 6 159 11.0 19.0 5.64 0.00 0.00 71 1013.1
20260509173302 -27 359 12.0 20.0 5.64 0.00 0.00 72 1013.4
20260509172802 -32 180 3.0 20.0 5.64 0.00 0.00 73 1013.7
20260509171303 -32 195 2.0 14.0 5.64 0.00 0.00 72 1013.8
20260509170802 -42 200 1.0 7.0 5.64 0.00 0.00 76 1013.8
20260509170303 -38 0 0.0 0.0 5.64 0.00 0.00 77 1013.9
20260509165802 -41 0 0.0 0.0 5.64 0.00 0.00 77 1013.9
20260509165306 -35 0 0.0 0.0 5.64 0.00 0.00 78 1014.2
20260509164803 -42 0 0.0 0.0 5.64 0.00 0.00 80 1014.2
20260509164303 -44 0 0.0 0.0 5.64 0.00 0.00 80 1014.5
20260509163803 -17 184 3.0 11.0 5.64 0.00 0.00 85 1014.9
20260509163302 -26 0 0.0 0.0 5.64 0.00 0.00 88 1015.1
20260509162803 -26 0 0.0 0.0 5.64 0.00 0.00 84 1015.3
20260509162306 -27 0 0.0 0.0 5.64 0.00 0.00 85 1015.5
20260509161803 -24 0 0.0 0.0 5.64 0.00 0.00 85 1015.5
20260509161303 -28 0 0.0 0.0 5.64 0.00 0.00 84 1015.6
20260509160804 -30 0 0.0 0.0 5.64 0.00 0.00 83 1015.5
20260509160303 -22 0 0.0 0.0 5.64 0.00 0.00 84 1015.6
20260509155803 -21 256 3.0 14.0 5.64 0.00 0.00 85 1015.7
20260509155306 -25 0 0.0 0.0 5.64 0.00 0.00 90 1015.5
20260509154803 -7 0 0.0 0.0 5.64 0.00 0.00 87 1015.5
20260509154303 -12 283 1.0 9.0 5.64 0.00 0.00 91 1015.4
20260509153803 -6 0 0.0 0.0 5.64 0.00 0.00 91 1015.4
20260509153303 7 0 0.0 0.0 5.64 0.00 0.00 91 1015.5
20260509152803 25 0 0.0 0.0 5.64 0.00 0.00 91 1015.6
20260509152306 0 250 12.0 20.0 5.64 0.00 0.00 91 1015.7
20260509151804 -6 198 13.0 21.0 5.64 0.00 0.00 90 1015.6
20260509151303 -7 0 0.0 0.0 5.64 0.00 0.00 91 1015.4
20260509150803 -9 0 0.0 0.0 5.64 0.00 0.00 94 1015.5
20260509150303 -7 222 3.0 12.0 5.64 0.00 0.00 95 1015.6
20260509145804 -6 211 6.0 15.0 5.64 0.00 0.00 96 1015.7
20260509145306 -6 214 0.0 7.0 5.64 0.00 0.00 97 1015.9
20260509144803 -7 198 8.0 19.0 5.64 0.00 0.00 98 1015.9
20260509144303 -4 0 0.0 0.0 5.64 0.00 0.00 99 1015.7
20260509143803 -4 0 0.0 0.0 5.64 0.00 0.00 98 1015.8
20260509143303 -3 0 0.0 0.0 5.64 0.00 0.00 100 1015.9
20260509142805 -3 0 0.0 0.0 5.64 0.00 0.00 100 1015.9
20260509142306 -3 0 0.0 0.0 5.64 0.00 0.00 100 1015.8
20260509141803 0 0 0.0 0.0 5.64 0.00 0.00 100 1015.9
20260509141303 21 0 0.0 0.0 5.64 0.00 0.00 100 1015.9
20260509140803 -2 0 0.0 0.0 5.64 0.00 0.00 100 1016.0
20260509140303 -3 0 0.0 0.0 5.64 0.00 0.00 100 1016.3
20260509135803 -3 0 0.0 0.0 5.64 0.00 0.00 100 1015.8
20260509135306 -4 0 0.0 0.0 5.64 0.00 0.00 100 1016.2
20260509134803 -3 0 0.0 0.0 5.64 0.00 0.00 100 1016.0
20260509134308 -2 0 0.0 0.0 5.64 0.00 0.00 100 1015.8
20260509133803 -2 0 0.0 0.0 5.64 0.00 0.00 100 1015.9
20260509133303 -2 0 0.0 0.0 5.64 0.00 0.00 100 1016.1
20260509132804 -7 0 0.0 0.0 5.64 0.00 0.00 100 1016.0
20260509132306 -7 0 0.0 0.0 5.64 0.00 0.00 100 1016.1
20260509131803 -5 0 0.0 0.0 5.64 0.00 0.00 100 1016.1
20260509131303 -6 0 0.0 0.0 5.64 0.00 0.00 98 1016.1
20260509130803 -5 0 0.0 0.0 5.64 0.00 0.00 99 1016.1
20260509130304 -4 0 0.0 0.0 5.64 0.00 0.00 98 1016.2
20260509125805 -2 0 0.0 0.0 5.64 0.00 0.00 99 1016.1
20260509125308 -5 0 0.0 0.0 5.64 0.00 0.00 99 1016.1
20260509124803 -6 0 0.0 0.0 5.64 0.00 0.00 99 1016.2
20260509124303 -6 0 0.0 0.0 5.64 0.00 0.00 100 1016.5
20260509123803 -6 0 0.0 0.0 5.64 0.00 0.00 100 1016.5
20260509123303 -6 0 0.0 0.0 5.64 0.00 0.00 100 1016.2
20260509122804 -7 0 0.0 0.0 5.64 0.00 0.00 100 1016.4
20260509122306 -7 0 0.0 0.0 5.64 0.00 0.00 100 1016.4
20260509121804 -5 0 0.0 0.0 5.64 0.00 0.00 100 1016.5
20260509121303 -5 0 0.0 0.0 5.64 0.00 0.00 100 1016.5
20260509120803 -6 0 0.0 0.0 5.64 0.00 0.00 100 1016.6
20260509120304 -6 0 0.0 0.0 5.64 0.00 0.00 100 1016.3
20260509115803 -7 0 0.0 0.0 5.64 0.00 0.00 100 1016.6
20260509115306 -8 0 0.0 0.0 5.64 0.00 0.00 100 1016.5
20260509114803 1 0 0.0 0.0 5.64 0.00 0.00 100 1016.3
20260509114305 -2 0 0.0 0.0 5.64 0.00 0.00 99 1016.3
20260509113803 -3 0 0.0 0.0 5.64 0.00 0.00 100 1016.3
20260509113303 -4 0 0.0 0.0 5.64 0.00 0.00 99 1016.1
20260509112804 -5 0 0.0 0.0 5.64 0.00 0.00 98 1016.2
20260509112306 -5 0 0.0 0.0 5.64 0.00 0.00 98 1016.0
20260509111804 -6 0 0.0 0.0 5.64 0.00 0.00 98 1016.2
20260509111303 -6 0 0.0 0.0 5.64 0.00 0.00 98 1016.2
20260509110810 -5 0 0.0 0.0 5.64 0.00 0.00 100 1016.1
20260509110303 -1 0 0.0 0.0 5.64 0.00 0.00 99 1016.0
20260509105803 -4 0 0.0 0.0 5.64 0.00 0.00 100 1016.3
20260509105306 -7 0 0.0 0.0 5.64 0.00 0.00 100 1016.3
20260509104803 -8 0 0.0 0.0 5.64 0.00 0.00 99 1016.4
20260509104303 -4 0 0.0 0.0 5.64 0.00 0.00 99 1016.4
20260509103803 2 0 0.0 0.0 5.64 0.00 0.00 98 1016.3
20260509103303 -4 0 0.0 0.0 5.64 0.00 0.00 98 1016.3
20260509102808 -8 0 0.0 0.0 5.64 0.00 0.00 98 1016.4
20260509102305 -8 0 0.0 0.0 5.64 0.00 0.00 98 1016.2
20260509101805 -9 0 0.0 0.0 5.64 0.00 0.00 97 1016.2
20260509101304 -5 0 0.0 0.0 5.64 0.00 0.00 97 1016.2
20260509100803 -5 283 1.0 7.0 5.64 0.00 0.00 97 1016.1
20260509100303 -6 0 0.0 0.0 5.64 0.00 0.00 97 1016.2
20260509095804 0 0 0.0 0.0 5.64 0.00 0.00 97 1016.2
20260509095306 1 0 0.0 0.0 5.64 0.00 0.00 97 1016.2
20260509094804 -1 0 0.0 0.0 5.64 0.00 0.00 96 1016.2
20260509094304 0 0 0.0 0.0 5.64 0.00 0.00 96 1016.2
20260509093803 0 0 0.0 0.0 5.64 0.00 0.00 95 1016.1
20260509093303 0 0 0.0 0.0 5.64 0.00 0.00 95 1016.1
20260509092805 1 0 0.0 0.0 5.64 0.00 0.00 94 1016.1
20260509092306 0 0 0.0 0.0 5.64 0.00 0.00 94 1016.1
20260509091804 1 0 0.0 0.0 5.64 0.00 0.00 93 1016.1
20260509091303 0 0 0.0 0.0 5.64 0.00 0.00 92 1016.1
20260509090805 1 0 0.0 0.0 5.64 0.00 0.00 92 1016.2
20260509090304 3 0 0.0 0.0 5.64 0.00 0.00 91 1016.2
20260509085803 -1 0 0.0 0.0 5.64 0.00 0.00 91 1016.2
20260509085306 6 0 0.0 0.0 5.64 0.00 0.00 91 1016.2
20260509084804 -3 0 0.0 0.0 5.64 0.00 0.00 90 1016.2
20260509084304 -2 0 0.0 0.0 5.64 0.00 0.00 90 1016.3
20260509083804 -4 0 0.0 0.0 5.64 0.00 0.00 90 1016.3
20260509083304 -4 0 0.0 0.0 5.64 0.00 0.00 90 1016.2
20260509082804 -4 0 0.0 0.0 5.64 0.00 0.00 90 1016.2
20260509082306 0 0 0.0 0.0 5.64 0.00 0.00 90 1016.2
20260509081804 -3 0 0.0 0.0 5.64 0.00 0.00 90 1016.1
20260509081304 0 0 0.0 0.0 5.64 0.00 0.00 90 1016.0
20260509080804 18 0 0.0 0.0 5.64 0.00 0.00 90 1016.1
20260509080304 28 0 0.0 0.0 5.64 0.00 0.00 90 1015.9
20260509075804 -3 0 0.0 0.0 5.64 0.00 0.00 90 1016.0
20260509075306 2 0 0.0 0.0 5.64 0.00 0.00 89 1016.0
20260509074805 1 0 0.0 0.0 5.64 0.00 0.00 90 1016.0
20260509074304 0 0 0.0 0.0 5.64 0.00 0.00 89 1016.1
20260509073804 1 0 0.0 0.0 5.64 0.00 0.00 90 1016.1
20260509073304 2 0 0.0 0.0 5.64 0.00 0.00 90 1016.1
20260509072807 1 0 0.0 0.0 5.64 0.00 0.00 90 1016.1
20260509072306 1 0 0.0 0.0 5.64 0.00 0.00 89 1016.1
20260509071804 1 0 0.0 0.0 5.64 0.00 0.00 88 1016.1
20260509071304 0 0 0.0 0.0 5.64 0.00 0.00 87 1016.1
20260509070806 2 0 0.0 0.0 5.64 0.00 0.00 86 1016.2
20260509070304 2 0 0.0 0.0 5.64 0.00 0.00 85 1016.2
20260509065805 1 0 0.0 0.0 5.64 0.00 0.00 84 1016.2
20260509065306 3 0 0.0 0.0 5.64 0.00 0.00 82 1016.3
20260509064804 3 0 0.0 0.0 5.64 0.00 0.00 82 1016.4
20260509064308 2 0 0.0 0.0 46.60 0.00 0.00 81 1016.3
20260509064304 3 0 0.0 0.0 5.64 0.00 0.00 81 1016.3
20260509063804 8 0 0.0 0.0 5.64 0.00 0.00 81 1016.3
20260509063308 10 0 0.0 0.0 5.64 0.00 0.00 80 1016.5
20260509062804 7 0 0.0 0.0 5.64 0.00 0.00 80 1016.6
20260509062306 11 0 0.0 0.0 5.64 0.00 0.00 79 1016.6
20260509061804 10 0 0.0 0.0 5.64 0.00 0.00 80 1016.6
20260509061305 10 0 0.0 0.0 5.64 0.00 0.00 79 1016.7
20260509060804 10 0 0.0 0.0 5.64 0.00 0.00 79 1016.7
20260509060309 11 0 0.0 0.0 5.64 0.00 0.00 80 1016.9
20260509055804 8 0 0.0 0.0 5.64 0.00 0.00 79 1017.1
20260509055306 8 0 0.0 0.0 5.64 0.00 0.00 80 1017.2
20260509054806 9 0 0.0 0.0 5.64 0.00 0.00 80 1017.1
20260509054309 9 0 0.0 0.0 5.64 0.00 0.00 80 1017.3
20260509053806 9 0 0.0 0.0 5.64 0.00 0.00 80 1017.2
20260509053304 9 0 0.0 0.0 5.64 0.00 0.00 79 1017.4
20260509052811 10 0 0.0 0.0 5.64 0.00 0.00 79 1017.4
20260509052307 8 0 0.0 0.0 5.64 0.00 0.00 79 1017.4
20260509051804 7 0 0.0 0.0 5.64 0.00 0.00 79 1017.5
20260509051305 10 0 0.0 0.0 5.64 0.00 0.00 77 1017.6
20260509050807 10 0 0.0 0.0 5.64 0.00 0.00 78 1017.6
20260509050304 10 0 0.0 0.0 5.64 0.00 0.00 77 1017.5
20260509045806 10 0 0.0 0.0 5.64 0.00 0.00 76 1017.5
20260509045306 10 0 0.0 0.0 5.64 0.00 0.00 76 1017.6
20260509044804 12 0 0.0 0.0 5.64 0.00 0.00 76 1017.6
20260509044306 15 0 0.0 0.0 5.64 0.00 0.00 76 1017.6
20260509043808 18 0 0.0 0.0 5.64 0.00 0.00 75 1017.5
20260509043304 18 0 0.0 0.0 5.64 0.00 0.00 75 1017.5
20260509042804 18 0 0.0 0.0 5.64 0.00 0.00 74 1017.6
20260509042306 20 0 0.0 0.0 5.64 0.00 0.00 74 1017.7
20260509041804 18 0 0.0 0.0 5.64 0.00 0.00 74 1017.7
20260509041308 20 0 0.0 0.0 5.64 0.00 0.00 73 1017.7
20260509040804 19 0 0.0 0.0 5.64 0.00 0.00 73 1017.7
20260509040305 19 0 0.0 0.0 5.64 0.00 0.00 73 1017.7
20260509035805 27 0 0.0 0.0 5.64 0.00 0.00 73 1017.7
20260509035306 26 0 0.0 0.0 5.64 0.00 0.00 72 1017.7
20260509034804 32 0 0.0 0.0 5.64 0.00 0.00 72 1017.8
20260509034304 14 0 0.0 0.0 5.64 0.00 0.00 71 1017.8
20260509033804 16 0 0.0 0.0 5.64 0.00 0.00 71 1017.8
20260509033304 41 0 0.0 0.0 5.64 0.00 0.00 71 1017.9
20260509032804 42 0 0.0 0.0 5.64 0.00 0.00 72 1017.9
20260509032306 42 0 0.0 0.0 5.64 0.00 0.00 72 1017.9
20260509031804 42 0 0.0 0.0 5.64 0.00 0.00 72 1018.0
20260509031304 42 0 0.0 0.0 5.64 0.00 0.00 73 1018.1
20260509030804 42 0 0.0 0.0 5.64 0.00 0.00 72 1018.1
20260509030305 42 0 0.0 0.0 5.64 0.00 0.00 72 1018.2
20260509025804 42 0 0.0 0.0 5.64 0.00 0.00 71 1018.2
20260509025306 43 0 0.0 0.0 5.64 0.00 0.00 71 1018.2
20260509024806 42 0 0.0 0.0 5.64 0.00 0.00 71 1018.1
20260509024304 42 0 0.0 0.0 5.64 0.00 0.00 72 1018.1
20260509023804 42 0 0.0 0.0 5.64 0.00 0.00 71 1018.1
20260509023304 43 0 0.0 0.0 5.64 0.00 0.00 71 1018.1
20260509022804 43 0 0.0 0.0 5.64 0.00 0.00 70 1018.1
20260509022306 43 0 0.0 0.0 5.64 0.00 0.00 70 1018.2
20260509021804 43 0 0.0 0.0 5.64 0.00 0.00 70 1018.2
20260509021305 41 0 0.0 0.0 5.64 0.00 0.00 70 1018.2
20260509020804 43 0 0.0 0.0 5.64 0.00 0.00 70 1018.2
20260509020304 43 0 0.0 0.0 5.64 0.00 0.00 70 1018.3
20260509015804 43 0 0.0 0.0 5.64 0.00 0.00 69 1018.3
20260509015306 43 0 0.0 0.0 5.64 0.00 0.00 69 1018.3
20260509014805 44 0 0.0 0.0 5.64 0.00 0.00 68 1018.3
20260509014304 44 0 0.0 0.0 5.64 0.00 0.00 67 1018.2
20260509013805 44 0 0.0 0.0 5.64 0.00 0.00 67 1018.2
20260509013305 44 0 0.0 0.0 5.64 0.00 0.00 67 1018.2
20260509012805 44 0 0.0 0.0 5.64 0.00 0.00 66 1018.2
20260509012307 44 0 0.0 0.0 5.64 0.00 0.00 66 1018.1
20260509011805 45 0 0.0 0.0 5.64 0.00 0.00 66 1018.1
20260509011305 45 0 0.0 0.0 5.64 0.00 0.00 65 1018.1
20260509010805 46 0 0.0 0.0 5.64 0.00 0.00 65 1018.0
20260509010305 45 0 0.0 0.0 5.64 0.00 0.00 65 1017.9
20260509005805 45 0 0.0 0.0 5.64 0.00 0.00 64 1017.9
20260509005306 46 0 0.0 0.0 5.64 0.00 0.00 64 1017.9
20260509004805 46 0 0.0 0.0 5.64 0.00 0.00 64 1017.9
20260509004305 47 0 0.0 0.0 5.64 0.00 0.00 64 1017.9
20260509003805 50 0 0.0 0.0 5.64 0.00 0.00 64 1018.0
20260509003305 43 0 0.0 0.0 5.64 0.00 0.00 64 1018.0
20260509002805 45 0 0.0 0.0 5.64 0.00 0.00 64 1018.0
20260509002306 46 0 0.0 0.0 5.64 0.00 0.00 64 1018.0
20260509001805 41 0 0.0 0.0 5.64 0.00 0.00 64 1018.2
20260509001305 43 0 0.0 0.0 5.64 0.00 0.00 62 1018.0
20260509000805 46 0 0.0 0.0 5.64 0.00 0.00 61 1018.0
20260509000305 47 0 0.0 0.0 5.64 0.00 0.00 61 1018.0
20260508235805 47 0 0.0 0.0 5.64 0.00 0.00 60 1018.1
20260508235306 48 0 0.0 0.0 5.64 0.00 0.00 59 1018.0
20260508234805 48 0 0.0 0.0 5.64 0.00 0.00 59 1018.0
20260508234305 49 0 0.0 0.0 5.64 0.00 0.00 58 1018.0
20260508233805 50 0 0.0 0.0 5.64 0.00 0.00 56 1018.0
20260508233305 51 0 0.0 0.0 5.64 0.00 0.00 54 1017.9
20260508232805 51 0 0.0 0.0 5.64 0.00 0.00 49 1018.0
20260508232307 51 0 0.0 0.0 5.64 0.00 0.00 38 1018.0
20260508231805 51 0 0.0 0.0 5.64 0.00 0.00 35 1018.0
20260508231305 51 0 0.0 0.0 5.64 0.00 0.00 34 1018.0
20260508230805 51 0 0.0 0.0 5.64 0.00 0.00 34 1018.0
20260508230305 51 0 0.0 0.0 5.64 0.00 0.00 37 1018.0
20260508225805 51 0 0.0 0.0 5.64 0.00 0.00 36 1018.1
20260508225307 51 0 0.0 0.0 5.64 0.00 0.00 37 1018.1
20260508224805 51 0 0.0 0.0 5.64 0.00 0.00 34 1018.1
20260508224305 51 0 0.0 0.0 5.64 0.00 0.00 33 1018.2
20260508223806 51 0 0.0 0.0 5.64 0.00 0.00 35 1018.2
20260508223305 51 0 0.0 0.0 5.64 0.00 0.00 34 1018.3
20260508222806 51 0 0.0 0.0 5.64 0.00 0.00 33 1018.2
20260508222306 52 0 0.0 0.0 5.64 0.00 0.00 36 1018.4
20260508221805 51 0 0.0 0.0 5.64 0.00 0.00 34 1018.3
20260508221307 51 0 0.0 0.0 5.64 0.00 0.00 36 1018.4